| time (UTC) | temp C | wind direction | speed KPH | gust KPH | rain 1hr cm | rain 24hr cm | rain mn cm | humidity % | barometer mb |
| 20260504190052 | 17 | 347 | 0.0 | 9.7 | 0.00 | 0.00 | 0.00 | 27 | 999.2 |
| 20260504184550 | 16 | 259 | 0.0 | 6.4 | 0.00 | 0.00 | 0.00 | 29 | 999.0 |
| 20260504183044 | 16 | 267 | 0.0 | 3.2 | 0.00 | 0.00 | 0.00 | 30 | 999.1 |
| 20260504181542 | 16 | 256 | 0.0 | 24.1 | 0.00 | 0.00 | 0.00 | 26 | 999.1 |
| 20260504180042 | 17 | 250 | 0.0 | 8.0 | 0.00 | 0.00 | 0.00 | 25 | 999.2 |
| 20260504174544 | 18 | 230 | 0.0 | 3.2 | 0.00 | 0.00 | 0.00 | 25 | 999.4 |
| 20260504173037 | 18 | 311 | 0.0 | 3.2 | 0.00 | 0.00 | 0.00 | 27 | 999.6 |
| 20260504171537 | 17 | 239 | 0.0 | 14.5 | 0.00 | 0.00 | 0.00 | 26 | 999.8 |
| 20260504120104 | 11 | 255 | 1.6 | 11.3 | 0.00 | 0.00 | 0.00 | 26 | 999.6 |
| 20260504081529 | 6 | 55 | 0.0 | 0.0 | 0.00 | 0.00 | 0.00 | 50 | 1000.4 |
| 20260504050006 | 8 | 55 | 0.0 | 0.0 | 0.00 | 0.00 | 0.00 | 43 | 1001.8 |
| 20260504044506 | 8 | 55 | 0.0 | 0.0 | 0.00 | 0.00 | 0.00 | 43 | 1001.8 |
| 20260504043002 | 9 | 55 | 0.0 | 0.0 | 0.00 | 0.00 | 0.00 | 40 | 1002.0 |
| 20260504041601 | 10 | 55 | 0.0 | 0.0 | 0.00 | 0.00 | 0.00 | 38 | 1002.2 |
| 20260504040132 | 11 | 55 | 0.0 | 0.0 | 0.00 | 0.00 | 0.00 | 35 | 1002.3 |
| 20260504034603 | 11 | 55 | 0.0 | 0.0 | 0.00 | 0.00 | 0.00 | 33 | 1002.4 |
| 20260504033057 | 12 | 298 | 0.0 | 0.0 | 0.00 | 0.00 | 0.00 | 26 | 1002.2 |
| 20260504031612 | 12 | 298 | 0.0 | 0.0 | 0.00 | 0.00 | 0.00 | 25 | 1002.2 |
| 20260504030055 | 13 | 298 | 0.0 | 0.0 | 0.00 | 0.00 | 0.00 | 25 | 1001.9 |
| 20260504024602 | 13 | 298 | 0.0 | 3.2 | 0.00 | 0.00 | 0.00 | 24 | 1001.6 |
| 20260504023055 | 13 | 298 | 0.0 | 3.2 | 0.00 | 0.00 | 0.00 | 23 | 1001.5 |
| 20260504021554 | 13 | 298 | 0.0 | 0.0 | 0.00 | 0.00 | 0.00 | 22 | 1001.5 |
| 20260504020108 | 13 | 299 | 0.0 | 0.0 | 0.00 | 0.00 | 0.00 | 22 | 1001.3 |
| 20260504014553 | 15 | 299 | 0.0 | 0.0 | 0.00 | 0.00 | 0.00 | 21 | 1001.3 |
| 20260504013052 | 15 | 296 | 0.0 | 0.0 | 0.00 | 0.00 | 0.00 | 20 | 1001.2 |
| 20260504011551 | 16 | 297 | 0.0 | 0.0 | 0.00 | 0.00 | 0.00 | 19 | 1001.2 |
| 20260504010053 | 16 | 281 | 0.0 | 11.3 | 0.00 | 0.00 | 0.00 | 19 | 1001.4 |
| 20260504004549 | 16 | 256 | 0.0 | 1.6 | 0.00 | 0.00 | 0.00 | 21 | 1001.3 |
| 20260504003051 | 17 | 345 | 0.0 | 8.0 | 0.00 | 0.00 | 0.00 | 20 | 1001.4 |
| 20260504001553 | 17 | 304 | 0.0 | 3.2 | 0.00 | 0.00 | 0.00 | 21 | 1001.5 |
| 20260504000050 | 17 | 298 | 0.0 | 11.3 | 0.00 | 0.00 | 0.00 | 20 | 1001.7 |
| 20260503234603 | 17 | 341 | 0.0 | 3.2 | 0.00 | 0.00 | 0.00 | 20 | 1001.6 |
| 20260503233049 | 17 | 292 | 0.0 | 4.8 | 0.00 | 0.00 | 0.00 | 19 | 1001.5 |
| 20260503231544 | 18 | 333 | 0.0 | 3.2 | 0.00 | 0.00 | 0.00 | 22 | 1001.6 |
| 20260503230047 | 17 | 329 | 0.0 | 8.0 | 0.00 | 0.00 | 0.00 | 22 | 1001.8 |
| 20260503224542 | 17 | 330 | 1.6 | 16.1 | 0.00 | 0.00 | 0.00 | 20 | 1001.8 |
| 20260503223041 | 18 | 311 | 0.0 | 14.5 | 0.00 | 0.00 | 0.00 | 20 | 1001.8 |
| 20260503221548 | 18 | 321 | 0.0 | 12.9 | 0.00 | 0.00 | 0.00 | 20 | 1001.7 |
| 20260503220039 | 17 | 243 | 0.0 | 12.9 | 0.00 | 0.00 | 0.00 | 19 | 1001.9 |
| 20260503214536 | 17 | 323 | 0.0 | 8.0 | 0.00 | 0.00 | 0.00 | 22 | 1002.2 |
| 20260503213037 | 17 | 337 | 0.0 | 1.6 | 0.00 | 0.00 | 0.00 | 21 | 1002.5 |
| 20260503211534 | 17 | 355 | 0.0 | 3.2 | 0.00 | 0.00 | 0.00 | 20 | 1002.6 |
| 20260503210031 | 17 | 336 | 0.0 | 3.2 | 0.00 | 0.00 | 0.00 | 20 | 1002.8 |
| 20260503204529 | 17 | 324 | 0.0 | 24.1 | 0.00 | 0.00 | 0.00 | 20 | 1003.3 |
| 20260503203028 | 18 | 306 | 0.0 | 11.3 | 0.00 | 0.00 | 0.00 | 20 | 1003.6 |
| 20260503201527 | 18 | 341 | 0.0 | 6.4 | 0.00 | 0.00 | 0.00 | 19 | 1003.7 |
| 20260503200028 | 17 | 290 | 0.0 | 17.7 | 0.00 | 0.00 | 0.00 | 19 | 1003.8 |
| 20260503194526 | 17 | 306 | 0.0 | 9.7 | 0.00 | 0.00 | 0.00 | 20 | 1003.9 |
| 20260503193024 | 17 | 265 | 0.0 | 16.1 | 0.00 | 0.00 | 0.00 | 20 | 1004.1 |
| 20260503191529 | 16 | 282 | 3.2 | 22.5 | 0.00 | 0.00 | 0.00 | 19 | 1004.2 |